This is the latest recevied weather packets stored in our database for station/object AA8FM-13. If no packets are shown the sender has not sent any weather packets the latest 10 day(s).
| Time | Temp. | Humidity | Pressure | Rain* | Wind** | Luminosity | Snow |
|---|---|---|---|---|---|---|---|
| 1788263736 | 70° F | 99% | 763 mmHg | 0 in | - | 33 W/m² | - |
| 1788263433 | 70° F | 99% | 763 mmHg | 0 in | - | 31 W/m² | - |
| 1788263128 | 70° F | 99% | 762.9 mmHg | 0 in | - | 30 W/m² | - |
| 1788262827 | 70° F | 99% | 762.9 mmHg | 0 in | - | 27 W/m² | - |
| 1788262525 | 69° F | 99% | 762.9 mmHg | 0 in | - | 24 W/m² | - |
| 1788262216 | 69° F | 99% | 762.8 mmHg | 0 in | - | 20 W/m² | - |
| 1788261910 | 69° F | 99% | 762.7 mmHg | 0 in | - | 18 W/m² | - |
| 1788261605 | 68° F | 99% | 762.7 mmHg | 0 in | - | 19 W/m² | - |
| 1788261303 | 68° F | 99% | 762.7 mmHg | 0 in | - | 14 W/m² | - |
| 1788260996 | 69° F | 99% | 762.7 mmHg | 0 in | - | 10 W/m² | - |
| 1788260692 | 68° F | 99% | 762.7 mmHg | 0 in | - | 7 W/m² | - |
| 1788260388 | 68° F | 99% | 762.7 mmHg | 0 in | - | 5 W/m² | - |
| 1788260084 | 68° F | 99% | 762.4 mmHg | 0 in | - | 3 W/m² | - |
| 1788259779 | 68° F | 99% | 762.7 mmHg | 0 in | - | 2 W/m² | - |
| 1788259475 | 68° F | 99% | 762.6 mmHg | 0 in | - | 1 W/m² | - |
| 1788259170 | 68° F | 99% | 762.7 mmHg | 0 in | - | 0 W/m² | - |
| 1788258870 | 68° F | 99% | 762.7 mmHg | 0 in | - | 0 W/m² | - |
| 1788258570 | 68° F | 99% | 762.5 mmHg | 0 in | - | 0 W/m² | - |
| 1788258265 | 68° F | 99% | 762.4 mmHg | 0 in | - | 0 W/m² | - |
| 1788257959 | 68° F | 99% | 762.4 mmHg | 0 in | - | 0 W/m² | - |
| 1788257655 | 68° F | 99% | 762.4 mmHg | 0 in | - | 0 W/m² | - |
| 1788257354 | 68° F | 99% | 762.3 mmHg | 0 in | - | 0 W/m² | - |
| 1788257049 | 68° F | 99% | 762.4 mmHg | 0 in | - | 0 W/m² | - |
| 1788256742 | 68° F | 99% | 762.4 mmHg | 0 in | - | 0 W/m² | - |
| 1788256441 | 68° F | 99% | 762.4 mmHg | 0 in | - | 0 W/m² | - |
* Rain latest hour (hover to see other rain measurements)
** Current wind speed in m/s (hover to see current wind gust speed)